loading
|
Showing default

COSMOS 158, 2801

Orbit data source: Space-Track

COSMOS 158, 2801 is a payload satellite owned by OKB-10 (CIS) in LEO that was launched on Mon, 15 May 1967 UTC via a KOSMOS 11K65M launch vehicle from the Plesetsk Missile And Space Complex (PKMTR). Payloads include a variety of satellites, spacecraft, and rockets equipped with specific instruments for various scientific and technological missions. These include communications satellites like Starlink; space stations such as the ISS; scientific satellites like the Hubble; Earth observation satellites from companies like Planet Labs, Umbra, and HawkEye 360; GPS; miniature CubeSats for education and research; and military/defense satellites.

Loading next visibility...
Next conjunction unknown
Loading greatness...
COSMOS 158 details
Identifier
2801, 1967-045A
Orbit
LEO
Last TLE update6 hours ago
Origin
Flag of CISOKB-10 (CIS)
ManufacturerOKB-10
MissionDefense Navigation
Bus & MotorKAUR-1 11F617, Unknown motor
Mass800 kg wet, 800 kg dry
Launch date (UTC)
1967-05-15 (57 years ago)
Launch vehicle
KOSMOS 11K65M
Launch site
Plesetsk Missile And Space Complex (PKMTR)
Object type
Payload
Rocket body
Debris
Shape & HBRCyl + 1 Rod, 17 m
Radar Cross Section9.978 m², Large (>1 m²)

Expand to show TLE details & history

TLE from 6 hours ago
0 COSMOS 158
1  2801U 67045A   24285.80878217  .00000333  00000-0  11924-3 0  9994
2  2801  74.0378 112.5024 0056131 111.1886 249.5278 14.36808320  8852
Epoch: 2024-10-11T19:24Z
Definitive object data (Epoch: 2024-10-11T19:24:38.779Z)
Latitude0.00003°
Longitude160.46717°
Altitude785.907 km
Speed7.454 km/s
True Right ascension07h 30m 00s
True Declination0° 00' 00"
Sunlit
Object was in daylight at TLE epoch
Predictive object data (real-time)
Latitude58.0258°
Longitude-47.07156°
Altitude738.703 km
Speed7.512 km/s
Apparent Right ascension10h 32m 10s
Apparent Declination41° 20' 24"
Sunlit
Object is in daylight
Predictive observer data (real-time)
Local Sidereal Time19:22:04
Azimuth326.348° NNW
Elevation2.006°
Doppler factor1
Orbital elements
Apogee806.791 km
Perigee726.582 km
Semi-major axis7,144.823 km
Eccentricity0.0056131
Inclination74.0378°
RAAN112.5024°
Arg. of periapsis111.1886°
True anomaly248.9267°
Mean anomaly249.5278°
Eccentric anomaly249.2271°
Mean motion3.59382 °/min
BSTAR0.00011924
Period100.17 mins
No data available
No data available
Other satellites on launch #45 in the year 1967 (1967-05-15 UTC)

COSMOS 158 Visibility forecast

Observer location: 39.9160978°, -105.1181434

Span
Click to sort rows by Start time (UTC) header in descending order
Start Az.
Max El. time (UTC)
Max El. Az.
Max El.
End time (UTC)
End Az.
7 mins2024-10-12 01:01:07.906Z309.091° NW2024-10-12 01:04:07.906Z264.413° W23.943°2024-10-12 01:08:07.906Z207.135° SW
9 mins2024-10-12 13:55:07.906Z202.36° SSW2024-10-12 13:59:07.906Z266.02° W44.519°2024-10-12 14:04:07.906Z16.606° NNE
6 mins2024-10-12 22:42:07.906Z15.221° NNE2024-10-12 22:45:07.906Z54.586° ENE18.865°2024-10-12 22:48:07.906Z97.546° ESE
8 mins2024-10-13 00:24:07.906Z323.634° NNW2024-10-13 00:28:07.906Z241.382° WSW35.433°2024-10-13 00:32:07.906Z185.692° SSW